Weather History for EGUB - July, 2013

Change the Weather History Date:

Wednesday, July 10, 2013

  Actual Average Record
Temperature  
Mean Temperature 61 °F -  
Max Temperature 75 °F 70 °F 82 °F (2005)
Min Temperature 47 °F 52 °F 47 °F (2013)
Degree Days  
Heating Degree Days 4    
Growing Degree Days 11 (Base 50)    
Moisture  
Dew Point 50 °F    
Average Humidity 64    
Maximum Humidity 88    
Minimum Humidity 29    
Precipitation  
Precipitation 0.00 in - - ()
Sea Level Pressure  
Sea Level Pressure 30.30 in    
Wind  
Wind Speed 8 mph ()    
Max Wind Speed 16 mph    
Max Gust Speed -    
Visibility 11.5 miles    
Events      
Averages and records for this station are not official NWS values.
T = Trace of Precipitation, MM = Missing Value Source: Averaged Metar Reports

Daily Weather History Graph

Daily Weather History Graph

Search for Another Location

Airport or City:

Trip Planner

Search our weather history database for the weather conditions in past years. The results will help you decide how hot, cold, wet, or windy it might be!

Date:

Astronomy

Jul. 10, 2013 Rise Set
Actual Time 4:58 AM BST 9:20 PM BST
Civil Twilight 4:12 AM BST 10:05 PM BST
Nautical Twilight 3:04 AM BST 11:13 PM BST
Astronomical Twilight 1:42 AM BST 12:37 AM BST
Moon 7:27 AM BST (7/10) 9:56 PM BST (7/10)
Length of Visible Light 17h 53m
Length of Day
16h 21m
Waxing Crescent, 4% of the Moon is Illuminated
Jul 10
Waxing Crescent
Jul 16
First Quarter
Jul 22
Full
Jul 29
Last Quarter
Aug 6
New

Hourly Weather History & Observations

Time (BST) Temp. Dew Point Humidity Pressure Visibility Wind Dir Wind Speed Gust Speed Precip Events Conditions
12:50 AM 55 °F 46 °F 62% 30.31 in 19 mi NNW 2.3 mph - -  
12:50 AM 55.4 °F 46.4 °F 72% 30.30 in - NNW 2.3 mph - N/A   Clear
1:50 AM 51.8 °F 44.6 °F 76% 30.30 in - NNE 1.2 mph - N/A   Clear
2:50 AM 51 °F 47 °F 80% 30.33 in 14 mi NE 5.8 mph - -   Overcast
2:50 AM 50.0 °F 44.6 °F 82% 30.30 in 6.2 mi NNW 2.3 mph - N/A   Unknown
3:50 AM 48 °F 44 °F 79% 30.31 in 19 mi North 3.5 mph - -   Clear
3:50 AM 48.2 °F 42.8 °F 82% 30.30 in - North 3.5 mph - N/A   Clear
4:50 AM 50.0 °F 44.6 °F 82% 30.30 in - NNW 3.5 mph - N/A   Clear
5:50 AM 51.8 °F 44.6 °F 76% 30.30 in - WNW 1.2 mph - N/A   Clear
6:50 AM 54 °F 47 °F 70% 30.32 in 19 mi NW 2.3 mph - -   Clear
6:50 AM 53.6 °F 46.4 °F 77% 30.30 in - NW 2.3 mph - N/A   Clear
7:50 AM 54 °F 44 °F 60% 30.32 in 19 mi NE 12.7 mph - -   Mostly Cloudy
7:50 AM 59.0 °F 48.2 °F 67% 30.30 in - NNE 4.6 mph - N/A   Clear
8:50 AM 56 °F 45 °F 57% 30.32 in 19 mi NE 9.2 mph - -   Mostly Cloudy
8:50 AM 64.4 °F 50.0 °F 59% 30.30 in - NNE 13.8 mph - N/A   Clear
9:50 AM 67 °F 49 °F 41% 30.32 in 19 mi NNE 15.0 mph - -   Clear
9:50 AM 68.0 °F 48.2 °F 49% 30.30 in - NNE 15.0 mph - N/A   Clear
10:50 AM 62 °F 46 °F 45% 30.31 in 19 mi NE 12.7 mph - -   Scattered Clouds
10:50 AM 69.8 °F 51.8 °F 53% 30.30 in 6.2 mi NNE 13.8 mph - N/A   Scattered Clouds
11:50 AM 63 °F 47 °F 44% 30.30 in 19 mi NE 10.4 mph - -   Scattered Clouds
11:50 AM 73.4 °F 57.2 °F 57% 30.30 in 6.2 mi NNE 13.8 mph - N/A   Partly Cloudy
12:50 PM 71 °F 57 °F 52% 30.30 in 16 mi NE 13.8 mph - -   Scattered Clouds
12:50 PM 71.6 °F 57.2 °F 60% 30.30 in 6.2 mi NE 13.8 mph - N/A   Partly Cloudy
1:50 PM 68 °F 46 °F 35% 30.28 in 19 mi NE 11.5 mph - -   Clear
1:50 PM 73.4 °F 57.2 °F 57% 30.30 in 6.2 mi NE 16.1 mph - N/A   Scattered Clouds
2:50 PM 71.6 °F 57.2 °F 60% 30.30 in 6.2 mi NNE 15.0 mph - N/A   Scattered Clouds
3:50 PM 71 °F 57 °F 52% 30.30 in 14 mi NNE 12.7 mph - -   Mostly Cloudy
3:50 PM 71.6 °F 57.2 °F 60% 30.30 in 6.2 mi NNE 12.7 mph - N/A   Scattered Clouds
4:50 PM 70 °F 56 °F 52% 30.29 in 12 mi NNE 13.8 mph - -   Mostly Cloudy
4:50 PM 69.8 °F 57.2 °F 64% 30.27 in 6.2 mi NNE 13.8 mph - N/A   Mostly Cloudy
5:50 PM 71 °F 46 °F 29% 30.25 in 19 mi NNE 11.5 mph - -   Clear
5:50 PM 68.0 °F 55.4 °F 64% 30.27 in 6.2 mi NNE 15.0 mph - N/A   Scattered Clouds
6:50 PM 66 °F 56 °F 61% 30.28 in 11 mi NNE 15.0 mph - -   Partly Cloudy
6:50 PM 66.2 °F 55.4 °F 68% 30.27 in 6.2 mi NNE 15.0 mph - N/A   Scattered Clouds
7:28 PM 64.4 °F 55.4 °F 73% 30.27 in 6.2 mi NNE 15.0 mph - N/A   Mostly Cloudy
7:50 PM 63 °F 54 °F 64% 30.29 in 11 mi NE 15.0 mph - -   Mostly Cloudy
7:50 PM 62.6 °F 53.6 °F 72% 30.27 in 6.2 mi NE 15.0 mph - N/A   Mostly Cloudy
8:50 PM 61 °F 52 °F 65% 30.30 in 11 mi NNE 15.0 mph - -   Mostly Cloudy
8:50 PM 60.8 °F 51.8 °F 72% 30.30 in 6.2 mi NNE 15.0 mph - N/A   Mostly Cloudy
9:50 PM 58 °F 50 °F 68% 30.30 in 11 mi NNE 12.7 mph - -   Partly Cloudy
9:50 PM 59.0 °F 50.0 °F 72% 30.30 in 6.2 mi NNE 12.7 mph - N/A   Scattered Clouds
10:50 PM 54 °F 50 °F 81% 30.32 in 12 mi NE 8.1 mph - -   Mostly Cloudy
10:50 PM 53.6 °F 50.0 °F 88% 30.30 in 6.2 mi NE 8.1 mph - N/A   Mostly Cloudy
11:50 PM 54 °F 47 °F 70% 30.32 in 12 mi NNE 13.8 mph - -   Scattered Clouds
11:50 PM 53.6 °F 46.4 °F 77% 30.30 in 6.2 mi NNE 13.8 mph - N/A   Partly Cloudy